Regional Weather Roundup
Issued by NWS

Home | Current Version | Previous Version | Text Only | Print | Product List | Glossary On
Versions: 1 2 3 4 5 6 7 8 9 10 11 12 13 14 15 16 17 18 19 20 21 22 23 24 25 26 27 28 29 30 31 32 33 34 35 36 37 38 39 40 41 42 43 44 45 46 47 48 49 50
000
ASUS43 KDTX 010801
RWRMI
MICHIGAN HOURLY REGIONAL WEATHER ROUNDUP
NATIONAL WEATHER SERVICE DETROIT/PONTIAC MI
400 AM EDT TUE SEP 01 2015

NOTE: "FAIR" INDICATES FEW OR NO CLOUDS BELOW 12,000 FEET WITH NO
SIGNIFICANT WEATHER AND/OR OBSTRUCTION TO VISIBILITY.

MIZ047>049-052>055-059>063-066>070-074>076-081>083-010900-
SOUTHEAST LOWER MICHIGAN

CITY           SKY/WX    TMP DP  RH WIND       PRES   REMARKS
ADRIAN         CLEAR     63  62  97 CALM      30.08F FOG
ALMA           MOCLDY    57  57 100 CALM      30.06S FOG
ANN ARBOR      FOG       61  59  93 CALM      30.07F VSB 1/4
BAD AXE        FOG       62  62  99 CALM      30.06S VSB 3/4
CARO           FOG       58  58  99 CALM      30.05S VSB 3/4
DETROIT CITY   CLEAR     68  64  87 CALM      30.07S
DETROIT        FOG       69  67  93 CALM      30.07S VSB 1
FLINT          FOG       62  59  90 CALM      30.07R VSB 1/4
GROSSE ILE     FOG       70  66  88 CALM      30.06S VSB 1/4
HILLSDALE        N/A     64  64 100 S3        30.09S FOG
HOWELL           N/A     66  65  98 CALM      30.08R FOG

CITY           SKY/WX    TMP DP  RH WIND       PRES   REMARKS
JACKSON        CLEAR     65  63  93 CALM      30.08S FOG
LAMBERTVILLE   FOG       66  64  92 CALM      30.08S VSB<1/4
LANSING        CLEAR     65  63  93 CALM      30.08R
LAPEER         FOG       57  57 100 CALM      30.07S VSB 1
MASON          FOG       64  61  92 CALM      30.08S VSB 1/2
MONROE           N/A     64  64  98 CALM      30.07S FOG
MT. CLEMENS    CLEAR     63  62  96 CALM      30.05S
PONTIAC        CLEAR     63  61  93 CALM      30.07S
PORT HOPE        N/A     66  64  93 VRB3      30.03S
PORT HURON     PTCLDY    57  57 100 CALM      30.07S
TRI CITIES     CLEAR     65  62  90 SW5       30.06S FOG
MIDLAND        FAIR      60  59  97 CALM      30.05R FOG
TROY           CLEAR     67  64  90 CALM      30.09S
SAGINAW HB     FOG       61  61 100 S5        30.05S VSB 1/2
$$
MIZ043>046-050>051-056>058-064>065-071>073-077>080-010900-
SOUTHWEST LOWER MICHIGAN

CITY           SKY/WX    TMP DP  RH WIND       PRES   REMARKS
BATTLE CREEK   CLEAR     67  64  90 CALM      30.08S
BENTON HARBOR  CLEAR     68  66  93 S3        30.05F FOG
BIG RAPIDS     PTCLDY    57  57  98 CALM      30.06S FOG
COLDWATER      CLEAR     64  64 100 CALM      30.08S FOG
FREMONT        FOG       61  61 100 CALM      30.05S VSB 3/4
HOLLAND        PTCLDY    66  64  93 CALM      30.06S FOG
GRAND RAPIDS   PTCLDY    64  64 100 CALM      30.06S FOG
IONIA          FAIR      63  63 100 CALM      30.06S FOG
KALAMAZOO      FOG       66  64  93 CALM      30.08S VSB 1
LUDINGTON      FOG       61  59  94 CALM      30.04S VSB 1/2
MARSHALL       FOG       63  62  97 CALM      30.07F VSB 3/4
MOUNT PLEASANT FOG       61  60  94 CALM      30.05S VSB 1/4
MUSKEGON       CLEAR     64  61  90 SE3       30.05S FOG
SOUTH HAVEN    CLEAR     69  67  93 S3        30.05S FOG
$$
MIZ016>042-010900-
NORTHERN LOWER MICHIGAN

CITY           SKY/WX    TMP DP  RH WIND       PRES   REMARKS
ALPENA         CLEAR     58  55  90 CALM      30.02F
BEAVER ISLAND  CLEAR     66  65  95 SW12G17   30.00S FOG
BELLAIRE       CLEAR     60  59  96 CALM      30.03R FOG
CADILLAC       FOG       58  57  96 CALM      30.06S VSB<1/4
CHARLEVOIX     CLEAR     66  65  97 S5        30.05R
FRANKFORT      CLEAR     68  65  91 CALM      30.02S
GAYLORD        CLEAR     64  63  96 W7        30.05R
GRAYLING       FOG       55  55  99 CALM      30.05S VSB 1/4
HARBOR SPRINGS CLEAR     66  65  97 CALM      30.01S
HOUGHTON LAKE  CLEAR     64  62  93 SW3       30.06S
MANISTEE       CLEAR     61  57  88 CALM      30.04F
OSCODA         CLEAR     64  64  99 CALM      30.03S FOG
PELLSTON       CLEAR     56  55  97 CALM      30.01S
ROGERS CITY    CLEAR     63  62  96 CALM      30.02S FOG
TRAVERSE CITY  CLEAR     66  63  90 S3        30.01F
$$
MIZ007>008-015-010900-
EASTERN UPPER MICHIGAN

CITY           SKY/WX    TMP DP  RH WIND       PRES   REMARKS
KINROSS        CLOUDY    64  64 100 S6        30.00S
MACKINAC ISLAN CLOUDY    65  64  96 SW5       30.00S
NEWBERRY       CLOUDY    66  66  99 SW10      29.99S FOG
S. S. MARIE    FOG       64  63  96 SE5       29.98S VSB 1/2
$$
MIZ004>006-011>014-085-010900-
CENTRAL UPPER MICHIGAN

CITY           SKY/WX    TMP DP  RH WIND       PRES   REMARKS
MANISTIQUE     CLOUDY    63  62  97 S5        29.99S FOG
ESCANABA       CLOUDY    63  63 100 CALM      29.97S VSB<1/4
MENOMINEE      CLEAR     66  63  88 SW5       29.98S
SAWYER-GWINN   FOG       65  64  96 S6        29.98R VSB 1/2
$$
MIZ001>003-009>011-084-010900-
WESTERN UPPER MICHIGAN

CITY           SKY/WX    TMP DP  RH WIND       PRES   REMARKS
IRON MOUNTAIN  CLEAR     64  63  96 SE3       29.97S FOG
HOUGHTON       CLEAR     71  67  87 SW7       29.90S
IRONWOOD       CLEAR     72  70  94 SW9       29.90S
$$

ABBREVIATIONS USED IN REMARKS
   TC - TEMPERATURE IN CELSIUS
  WCI - WIND CHILL INDEX
   HX - HEAT INDEX
  VSB - VISIBILITY




USA.gov is the U.S. government's official web portal to all federal, state and local government web resources and services.